Regional Weather Roundup
Issued by NWS Mobile, AL

Current Version | Previous Version | Text Only | Print | Product List | Glossary On
Versions: 1 2 3 4 5 6 7 8 9 10 11 12 13 14 15 16 17 18 19 20 21 22 23 24 25 26 27 28 29 30 31 32 33 34 35 36 37 38 39 40 41 42 43 44 45 46 47 48 49 50
000
ASUS44 KMOB 050016
RWRMOB
REGIONAL WEATHER ROUNDUP
NATIONAL WEATHER SERVICE MOBILE AL
700 PM CDT MON MAY 04 2015

ALZ061>064-050100-
COASTAL ALABAMA


CITY           SKY/WX    TMP DP  RH WIND       PRES   REMARKS
MOBILE REG APT PTCLDY    74  55  51 SE8       30.19S
6HR MIN TEMP:  74; 6HR MAX TEMP:  83;

BROOKLEY FIELD CLEAR     75  62  64 S6        30.19S
6HR MIN TEMP:  75; 6HR MAX TEMP:  82;

GULF SHORES    PTCLDY    74  63  69 SE9       30.19R
6HR MIN TEMP:  74; 6HR MAX TEMP:  79;


$$

ALZ051>060-050100-
INTERIOR SOUTHWEST AND SOUTH CENTRAL ALABAMA


CITY           SKY/WX    TMP DP  RH WIND       PRES   REMARKS
ANDALUSIA/OPP  CLEAR     78  55  44 CALM      30.20R
6HR MIN TEMP:  78; 6HR MAX TEMP:  87;

EVERGREEN      CLEAR     79  53  40 E6        30.19S
6HR MIN TEMP:  79; 6HR MAX TEMP:  85;

FLORALA        CLEAR     77  53  43 CALM      30.21S
6HR MIN TEMP:  77; 6HR MAX TEMP:  83;

GREENVILLE     FAIR      78  53  41 CALM      30.19S
6HR MIN TEMP:  78; 6HR MAX TEMP:  84;


$$

FLZ001>006-050100-
WESTERN FLORIDA PANHANDLE


CITY           SKY/WX    TMP DP  RH WIND       PRES   REMARKS
CRESTVIEW      MOCLDY    76  56  49 S7        30.22R
6HR MIN TEMP:  76; 6HR MAX TEMP:  88;

DESTIN         CLEAR     75  62  64 S5        30.20R
6HR MIN TEMP:  75; 6HR MAX TEMP:  80;

DUKE FIELD     PTCLDY    75  52  44 S9        30.20S
6HR MIN TEMP:  75; 6HR MAX TEMP:  85;

MARY ESTHER    CLEAR     75  60  59 SE8       30.19R
6HR MIN TEMP:  75; 6HR MAX TEMP:  80;

MILTON         PTCLDY    76  61  59 S10       30.20R
6HR MIN TEMP:  76; 6HR MAX TEMP:  85;

PENSACOLA      MOCLDY    74  60  61 SE12      30.19R
6HR MIN TEMP:  74; 6HR MAX TEMP:  81;

NAS PENSACOLA  PTCLDY    74  63  68 SE12      30.19R
6HR MIN TEMP:  74; 6HR MAX TEMP:  80;

VALPARAISO     PTCLDY    75  60  60 S10       30.20R
6HR MIN TEMP:  75; 6HR MAX TEMP:  82;


$$

...MARINE OBSERVATIONS...

STATION/POSITION TIME  SKY/WX   TEMP    WIND        PRES    VSBY
                                AIR SEA DIR/SP/G
                 (UTC)          (F)     (DEG/KT/KT) (MB)    (MI)
PASCAGOULA       2300            76     140/ 12/ 17 1021.8R
PETIT BOIS ISL   2300            76     130/ 14/ 17 1022.3R
E DAUPHIN ISLAND 0000            75     140/ 13/ 14 1021.5F
MIDDLE BAY LIGHT 2300            75     150/ 13     1021.3R
USCG MOBILE BAY  2312            76 72  180/  8/ 13 1020.9R
STATE DOCKS      2300                               1021.6S
MEAHER PARK      0000            76     170/  6     1021.7R
FORT MORGAN      2312            76     160/ 14/ 15 1021.4F
12 S ORANGE BCH  2350            76 75  130/ 14/ 17 1021.4R
WVE H/P(F/S)=  4/ 7

PENSACOLA BAY    2300            79 77  170/  9/ 12 1022.6R
64 S DAUPHIN ISL 2350            76 75  110/ 16/ 19 1021.3F
WVE H/P(F/S)=  6/ 6

67 S FORT MORGAN 2330            75                 1021.0F
115 SE PENSACOLA 2350            74 75   90/ 12/ 14 1022.0F
WVE H/P(F/S)=  5/ 7

MID GULF/42001   2350            74 79  120/ 19/ 23 1018.3F
WVE H/P(F/S)=  7/ 6

EAST GULF/42003  2350            77 80   80/ 17/ 21 1019.0R
WVE H/P(F/S)=  7/ 8


$$

...NEARBY LOCATIONS

CITY           SKY/WX    TMP DP  RH WIND       PRES   REMARKS
GULFPORT       MOCLDY    76  64  66 SE15G23   30.16F
6HR MIN TEMP:  76; 6HR MAX TEMP:  81;

BILOXI         MOCLDY    76  64  67 S9        30.17S
6HR MIN TEMP:  76; 6HR MAX TEMP:  81;

PASCAGOULA     PTCLDY    74  61  63 SE8       30.18S
6HR MIN TEMP:  74; 6HR MAX TEMP:  82;

HATTIESBURG    PTCLDY    79  58  48 S9        30.16R
6HR MIN TEMP:  79; 6HR MAX TEMP:  85;

LAUREL         PTCLDY    77  59  53 S5        30.17S
6HR MIN TEMP:  77; 6HR MAX TEMP:  84;

MERIDIAN       PTCLDY    78  53  41 E6        30.16S
6HR MIN TEMP:  78; 6HR MAX TEMP:  83;

MERIDIAN NAS   PTCLDY    78  53  41 E7        30.17S
6HR MIN TEMP:  78; 6HR MAX TEMP:  85;

MONTGOMERY     CLEAR     79  57  46 SE3       30.20R
6HR MIN TEMP:  79; 6HR MAX TEMP:  85;

MAXWELL AFB    PTCLDY    79  53  41 E3        30.19R
6HR MIN TEMP:  79; 6HR MAX TEMP:  85;

TROY           CLEAR     76  54  46 SE3       30.21S
6HR MIN TEMP:  76; 6HR MAX TEMP:  84;

FORT RUCKER    CLEAR     77  51  40 CALM      30.19R
6HR MIN TEMP:  77; 6HR MAX TEMP:  84;

DALEVILLE      CLEAR     77  48  36 E3        30.19S
6HR MIN TEMP:  77; 6HR MAX TEMP:  84;

DOTHAN         MOCLDY    79  49  34 E6        30.23S
6HR MIN TEMP:  78; 6HR MAX TEMP:  83;


$$

...OTHER SURROUNDING LOCATIONS...

CITY           SKY/WX    TMP DP  RH WIND       PRES   REMARKS
BIRMINGHAM     PTCLDY    77  53  43 E3        30.23S
6HR MIN TEMP:  77; 6HR MAX TEMP:  83; 6HR PCP: TRACE;

TUSCALOOSA     CLEAR     78  56  46 E5        30.19S
6HR MIN TEMP:  78; 6HR MAX TEMP:  84;

COLUMBUS GA    CLEAR     76  50  40 SE6       30.22R
6HR MIN TEMP:  76; 6HR MAX TEMP:  82;

PANAMA CITY    NOT AVBL
TALLAHASSEE    PTCLDY    80  56  43 SE9       30.19R
6HR MIN TEMP:  80; 6HR MAX TEMP:  87;

BATON ROUGE    PTCLDY    77  64  64 E13       30.12S
6HR MIN TEMP:  77; 6HR MAX TEMP:  84;

NEW ORLEANS    MOCLDY    78  63  59 E16G22    30.13F
6HR MIN TEMP:  78; 6HR MAX TEMP:  82;

SLIDELL        MOCLDY    75  67  76 SE8G17    30.15S
6HR MIN TEMP:  73; 6HR MAX TEMP:  82; 6HR PCP:  0.03;

JACKSON        PTCLDY    79  57  46 SE6       30.13S
6HR MIN TEMP:  78; 6HR MAX TEMP:  84;

MCCOMB         CLEAR     77  58  51 SE10      30.14S
6HR MIN TEMP:  77; 6HR MAX TEMP:  82;


$$

...SURROUNDING MARINE OBSERVATIONS...

STATION/POSITION TIME  SKY/WX   TEMP    WIND        PRES    VSBY
                                AIR SEA DIR/SP/G
                 (UTC)          (F)     (DEG/KT/KT) (MB)    (MI)
WAVELAND         2300            75 77  140/ 14/ 18 1021.6R
PASCAGOULA RGN A 2300            77     140/ 13/ 16 1021.5S
PASCAGOULA PORT  2300               79                N/A
GRAND ISLE       2300            77 77  110/ 12/ 16 1019.9F
SOUTHWEST PASS   0000            76     110/ 25/ 27 1020.0F
PILOT STATION E  2312            77 67  110/ 26/ 29 1020.4F
SHELL BEACH      2300            76 77  120/ 17/ 23 1020.5F
PANAMA CITY      2300            77 78  180/ 13/ 17 1021.5R
APALACHICOLA     2300            78 73  230/  3/  4 1021.8F
TYNDALL TOWER C  0000            73      20/  2/  3 1022.1S
S APLCHCLA/42036 2350            74 75   10/ 10/ 12 1021.7S
WVE H/P(F/S)=  4/ 7


$$




USA.gov is the U.S. government's official web portal to all federal, state and local government web resources and services.